Regional Weather Roundup
Issued by NWS Jackson, KY

Home | Current Version | Previous Version | Graphics & Text | Print | Product List | Glossary On
Versions: 1 2 3 4 5 6 7 8 9 10 11 12 13 14 15 16 17 18 19 20 21 22 23 24 25 26 27 28 29 30 31 32 33 34 35 36 37 38 39 40 41 42 43 44 45 46 47 48 49 50
634
ASUS43 KJKL 302310
RWRJKL

EAST KENTUCKY HOURLY WEATHER ROUNDUP
NATIONAL WEATHER SERVICE JACKSON KY
700 PM EDT SAT JUL 30 2016

NOTE: "FAIR" INDICATES FEW OR NO CLOUDS BELOW 12,000 FEET WITH
NO SIGNIFICANT WEATHER AND/OR OBSTRUCTIONS TO VISIBILITY.

* THESE REPORTS ARE NOT UNDER NWS QUALITY CONTROL AND MAY NOT
  REPORT WEATHER SUCH AS PRECIPITATION AND FOG.

KYZ079-080-083-085-087-088-110-112-115-119-120-310000
...EASTERN KENTUCKY...

CITY           SKY/WX    TMP DP  RH WIND       PRES   REMARKS
JACKSON        SUNNY     81  71  71 CALM      29.99S
LONDON           N/A     85  67  54 W10       29.99S
SOMERSET*      CLOUDY    82  68  61 W7        29.99S
MONTICELLO*    MOSUNNY  N/A N/A N/A W13       30.00F
WILLIAMSBURG*  CLEAR     82  70  65 W3        29.99S
MIDDLESBORO*   PTSUNNY   79  70  73 SW8       29.99F
HARLAN APT*    MOCLDY    81  70  69 CALM      30.01S
PIKE CO APT*     N/A     82  71  68 CALM      29.99F
BIG SANDY APT* PTCLDY    83  73  72 CALM      29.98F
MOREHEAD APT*  PTCLDY    81  72  74 CALM      29.98S
ASHLAND*       MOSUNNY   84  72  65 W6        29.93R
$$

KYZ035-036-041-042-044-050-067-078-099-310000
...CENTRAL KENTUCKY...

CITY           SKY/WX    TMP DP  RH WIND       PRES   REMARKS
MT STERLING*   LGT RAIN  77  70  78 NW5       30.00R
FLEMING/MASON* CLOUDY    77  69  76 NW3       29.99R
DANVILLE*      SUNNY     84  70  61 NW7       29.99R
LEXINGTON      CLOUDY    76  69  79 NW3       29.98F
FRANKFORT      CLOUDY    77  70  79 NW3       29.97S
LOUISVILLE     CLOUDY    81  69  67 W6        29.96R
LEBANON*       MOCLDY    77  70  78 N7        29.98R
GLASGOW*       SUNNY     84  68  58 W7        29.96F
BOWLING GREEN  MOSUNNY   86  70  58 SW9       29.96S HX  90
$$

KYZ091>093-OHZ055-061-077-WVZ005-015-034-035-042-310000
...SOUTHERN OHIO/WEST VIRGINIA...

CITY           SKY/WX    TMP DP  RH WIND       PRES   REMARKS
COVINGTON      PTSUNNY   82  71  69 SW5       29.96R
COLUMBUS       MOSUNNY   84  65  52 SW10      29.91S
DAYTON         MOSUNNY   83  67  58 NW6       29.95F
WILMINGTON     MOSUNNY   82  69  64 SW9       29.95R
HUNTINGTON     PTSUNNY   86  69  56 W6        29.95R HX  90
CHARLESTON       N/A     82  70  66 W8        29.97R
PINEVILLE*       N/A     79  70  73 MISG      30.06S
BECKLEY        PTSUNNY   78  65  63 W6        30.06R
BLUEFIELD        N/A     77  65  66 W8        30.09R
LOGAN CO APT*    N/A     77  72  83 CALM      30.00S
$$

VAZ002-007-008-TNZ017-027-036-066-071-310000
...SOUTHWEST VIRGINIA/EAST TENNESSEE...

CITY           SKY/WX    TMP DP  RH WIND       PRES   REMARKS
WISE*          CLOUDY    75  63  64 SW5       30.09S
JONESVILLE*      N/A     81  73  78 CALM      30.02F
ABINGDON*        N/A     84  67  57 W5        30.05S
BRISTOL        MOSUNNY   86  67  52 W7        30.00F
MORRISTOWN*    MOCLDY    86  70  58 NW6       29.98S HX  90
SEVIERVILLE*   CLEAR     90  64  43 W8        29.96F HX  91
KNOXVILLE      PTSUNNY   87  68  52 W8        29.96F HX  90
OAK RIDGE      MOSUNNY   88  69  53 MISG      29.98F HX  92
CROSSVILLE     MOSUNNY   81  69  67 W7        30.04F
NASHVILLE      PTSUNNY   88  68  51 S5        29.96F HX  91
$$

...KEY TO REMARKS...
VSB - VISIBILITY IN MILES
WCI - WIND CHILL INDEX
HX  - HEAT INDEX

$$




USA.gov is the U.S. government's official web portal to all federal, state and local government web resources and services.